Alabaster, AL

7:23 PM CDT on October 22, 2019 (GMT -0500)
Shelby County

Weather History for KEET - August, 2019

Change the Weather History Date:

Thursday, August 1, 2019

  Actual Average Record
Temperature  
Mean Temperature 81 °F 81 °F  
Max Temperature 92 °F 91 °F 99 °F (1999)
Min Temperature 69 °F 71 °F 60 °F (1960)
Cooling Degree Days 16 16  
Month to date cooling degree days 16 16  
Year to date cooling degree days 1305 1146  
Since 1 June cooling degree days 908 877  
Growing Degree Days 30 (Base 50)    
Moisture  
Dew Point 68 °F    
Average Humidity 74    
Maximum Humidity 97    
Minimum Humidity 51    
Precipitation  
Precipitation 0.02 in 0.14 in 1.70 in (2018)
Month to date precipitation 0.02 0.14  
Year to date precipitation 31.30 33.46  
Sea Level Pressure  
Sea Level Pressure 30.04 in    
Wind  
Wind Speed 1 mph (West)    
Max Wind Speed 16 mph    
Max Gust Speed 24 mph    
Visibility 9 miles    
Events Rain , Thunderstorm    
T = Trace of Precipitation, MM = Missing Value Source: NWS Daily Summary

Daily Weather History Graph

Daily Weather History Graph

Search for Another Location

Airport or City:

Astronomy

Aug. 01, 2019 Rise Set
Actual Time 6:00 AM CDT 7:46 PM CDT
Civil Twilight 5:32 AM CDT 8:13 PM CDT
Nautical Twilight 5:00 AM CDT 8:46 PM CDT
Astronomical Twilight 4:25 AM CDT 9:20 PM CDT
Moon 6:24 AM CDT (8/1) 8:34 PM CDT (8/1)
Length of Visible Light 14h 40m
Length of Day
13h 46m
New Moon, 1% of the Moon is Illuminated
Aug 1
New Moon
Aug 7
First Quarter
Aug 15
Full
Aug 23
Last Quarter
Aug 30
New

Hourly Weather History & Observations

Time (CDT) Temp. Heat Index Dew Point Humidity Pressure Visibility Wind Dir Wind Speed Gust Speed Precip Events Conditions
12:53 AM 71.1 °F - 69.1 °F 93% 30.04 in 9.0 mi Calm Calm - N/A   Clear
1:53 AM 71.1 °F - 69.1 °F 93% 30.03 in 8.0 mi Calm Calm - N/A   Clear
2:53 AM 70.0 °F - 68.0 °F 93% 30.02 in 7.0 mi Calm Calm - N/A   Clear
3:53 AM 70.0 °F - 68.0 °F 93% 30.01 in 7.0 mi Calm Calm - N/A   Clear
4:53 AM 70.0 °F - 68.0 °F 93% 30.02 in 7.0 mi Calm Calm - N/A   Clear
5:53 AM 69.1 °F - 66.9 °F 93% 30.04 in 9.0 mi Calm Calm - N/A   Clear
6:53 AM 73.0 °F - 69.1 °F 87% 30.06 in 10.0 mi Calm Calm - N/A   Overcast
7:53 AM 75.0 °F - 70.0 °F 84% 30.08 in 9.0 mi Calm Calm - N/A   Overcast
8:53 AM 80.1 °F 83.2 °F 70.0 °F 71% 30.08 in 10.0 mi Calm Calm - N/A   Clear
9:53 AM 84.9 °F 89.4 °F 70.0 °F 61% 30.07 in 10.0 mi Calm Calm - N/A   Clear
10:53 AM 88.0 °F 92.1 °F 69.1 °F 53% 30.08 in 10.0 mi Calm Calm - N/A   Clear
11:26 AM 88.0 °F 91.4 °F 68.0 °F 51% 30.09 in 10.0 mi Calm Calm - N/A Thunderstorm Clear
11:53 AM 84.9 °F 86.6 °F 64.9 °F 51% 30.07 in 10.0 mi WNW 9.2 mph 24.2 mph N/A Thunderstorm Partly Cloudy
12:17 PM 87.1 °F 87.5 °F 62.1 °F 43% 30.07 in 10.0 mi WNW 6.9 mph - N/A Thunderstorm Thunderstorm
12:35 PM 86.0 °F 87.6 °F 64.9 °F 49% 30.07 in 10.0 mi West 8.1 mph - N/A Thunderstorm Partly Cloudy
12:51 PM 87.8 °F 90.4 °F 66.2 °F 49% 30.07 in 10.0 mi Calm Calm - N/A Thunderstorm Thunderstorm
12:53 PM 89.1 °F 91.0 °F 64.9 °F 45% 30.05 in 10.0 mi Variable 3.5 mph - N/A Thunderstorm Thunderstorm
1:21 PM 87.1 °F 88.9 °F 64.9 °F 48% 30.06 in 10.0 mi Variable 4.6 mph - N/A Thunderstorm Clear
1:34 PM 88.0 °F 90.3 °F 66.0 °F 48% 30.04 in 10.0 mi ESE 8.1 mph - N/A   Clear
1:45 PM 91.9 °F 94.5 °F 66.0 °F 42% 30.04 in 10.0 mi Variable 6.9 mph - N/A Thunderstorm Clear
1:53 PM 90.0 °F 91.7 °F 64.9 °F 43% 30.02 in 10.0 mi Variable 6.9 mph - N/A Thunderstorm Clear
2:25 PM 86.0 °F 88.8 °F 66.9 °F 53% 30.05 in 10.0 mi WNW 8.1 mph - N/A   Mostly Cloudy
2:38 PM 84.0 °F 86.5 °F 66.9 °F 56% 30.05 in 10.0 mi West 4.6 mph - N/A Thunderstorm Scattered Clouds
2:53 PM 81.0 °F 83.0 °F 66.0 °F 60% 30.04 in 10.0 mi SW 10.4 mph 19.6 mph N/A Thunderstorm Partly Cloudy
3:37 PM 77.0 °F - 69.1 °F 76% 30.03 in 10.0 mi Calm Calm - 0.00 in Rain Light Rain
3:53 PM 75.0 °F - 70.0 °F 84% 30.01 in 6.0 mi Variable 3.5 mph - 0.00 in Rain Light Rain
4:53 PM 75.0 °F - 70.0 °F 84% 29.99 in 10.0 mi Calm Calm - 0.02 in   Partly Cloudy
5:53 PM 77.0 °F - 70.0 °F 79% 29.98 in 10.0 mi Calm Calm - N/A   Clear
6:53 PM 77.0 °F - 71.1 °F 82% 29.98 in 10.0 mi Calm Calm - N/A   Clear
7:53 PM 75.9 °F - 72.0 °F 87% 29.99 in 10.0 mi Calm Calm - N/A   Clear
8:53 PM 75.9 °F - 72.0 °F 87% 30.01 in 10.0 mi Calm Calm - N/A   Clear
9:53 PM 75.0 °F - 72.0 °F 90% 30.01 in 9.0 mi Calm Calm - N/A   Clear
10:53 PM 75.0 °F - 72.0 °F 90% 30.03 in 9.0 mi Calm Calm - N/A   Mostly Cloudy
11:53 PM 73.9 °F - 71.1 °F 91% 30.03 in 9.0 mi Calm Calm - N/A   Clear